map of FOG home
Great Circle Mapper logo
FOG - Airport
Location
City:  Foggia, Apulia, Italy
Name:Gino Lisa
ICAO / IATA:LIBF / FOG

Details
Type:Airport (Aerodrome, Airfield)
Use:Public/Civil
Latitude:4125'59"N (41.432917)
Longitude:1532'06"E (15.535028)
Datum:WGS 1984
Elevation:266 ft (81 m)
Variation:3.26E (WMM2015 magnetic declination)
0.10 annual change
Runways:1
Longest:4724 × 148 ft (1440 × 45 m), paved

Time
Time Zone:UTC+1 (DST+2)
Local Time:

Weather
METAR:LIBF 011150Z 21009KT 9999 FEW015 SCT030 09/04 Q0991
TAF:LIBF 011100Z 0112/0212 23014KT 9999 FEW020
TEMPO 0112/0118 23016G26KT
BECMG 0200/0203 VRB06KT
TEMPO 0206/0212 SHRA
BECMG 0209/0212 33015KT

Related Locations
Nearby:
Farthest:CHT: 11808 mi / 19003 km
Waitangi [Tuuta], Chatham Islands, NZ

Find:

   beyond  
but within

Other Information
Maps:
NOTAMs:
Links:
Sources:

  
flag of Italy
flag of Apulia
  

Sectional Chart

Flight Planning
at skyvector.com

Satellite Image

Google Maps Satellite View

 

Copyright © 2004-2015 Karl L. Swartz. All rights reserved.
The Great Circle Mapper name and logo are trademarks of the Great Circle Mapper.
All other trademarks mentioned herein belong to their respective owners.
Please see credits for attibutions and further copyright information.

  Follow gcmap on Facebook Follow gcmap on Twitter

hCard Microformat

Geo Microformat